TITAN 3C TRANSTAGE DEB, 33513

Orbit data source: Space-Track

TITAN 3C TRANSTAGE DEB, 33513 is space debris in GEO originally from a launch on Thu, 26 Sep 1968 UTC launched from the Air Force Eastern Test Range (AFETR). Debris objects in space refer to the collection of defunct objects orbiting the Earth. Examples of debris include non-operational satellites, rocket bodies, and fragments generated from explosions, collisions, or faulty payload assembly.

Loading next visibility...
Identifier
33513, 1968-081P
Orbit
GEO
Country
Flag of USUS
Related business
Manufacturer
Unknown
Mission
Spacecraft
Bus & Motor
Unknown
Mass
Unknown
Launch date (UTC)
1968-09-26 (57 years ago)
Launch vehicle
Unknown
Launch site
Air Force Eastern Test Range (AFETR)
Object type
Payload
Rocket body
Debris
Shape & HBR
Unknown shape, 1.1 m
Radar Cross Section
Medium (>0.1 m² and <1 m²)

Expand to show TLE details & history
Last TLE update: 16 hours ago

TLE from 16 hours ago
0 TITAN 3C TRANSTAGE DEB
1 33513U 68081P   25292.24166376 -.00000092  00000-0  00000-0 0  9995
2 33513   1.5708  41.7201 0085181 289.2583  14.1178  1.01396535 45423
Epoch: 2025-10-19T05:47Z
TLE epoch observation values (Epoch: 2025-10-19T05:47:59.748Z)
Latitude
-1.28952°
Longitude
-129.64237°
Altitude
35,128.153 km
Speed
3.112 km/s
True Right ascension
23h 01m 16s
True Declination
-1° 17' 18"
Sunlit
Object was in daylight at epoch
Visualization orbit readout
Latitude
Unknown
Longitude
Unknown
Altitude
Unknown
Speed
Unknown
Apparent Right ascension
Unknown
Apparent Declination
Unknown
Sunlit
N/A
Visualization observer readout
Local Sidereal Time
16:37:00
Azimuth
Unknown
Elevation
Unknown
Doppler factor
Unknown
Orbital elements
Apogee altitude
35,831.793 km
Perigee altitude
35,118.77 km
Semi-major axis
41,853.419 km
Eccentricity
0.00852
Inclination
1.5708°
RAAN
41.7201°
Arg. of periapsis
289.2583°
True anomaly
14.35837°
Mean anomaly
14.1178°
Eccentric anomaly
14.23783°
Mean motion
0.25348 °/min
Orbital period
1,420.22 mins
BSTAR
0
Loading maneuver chart data...
Computing Atmospheric mass density...

Documentation

Showing up to 5 results
|